Tracking 19247 objects as of 24-Sep-2018
HD Live streaming from Space Station
objects crossing your sky now

RESURS O1 DEB

Track RESURS O1 DEB now!
10-day predictions


NORAD ID: 23345
Int'l Code: 1994-074D
Perigee: 656.2 km
Apogee: 939.7 km
Inclination: 97.8 °
Period: 100.7 minutes
Semi major axis: 7168 km
RCS: 0.0839 m2 (small)
Launch date: November 4, 1994
Source: Commonwealth of Independent States (former USSR) (CIS)
Launch site: TYURATAM MISSILE AND SPACE COMPLEX (TTMTR)

Note: This is SATELLITE DEBRIS
aabbcc
Your satellite tracking list
Your tracking list is empty




NASA's NSSDC Master Catalog

Two Line Element Set (TLE):
1 23345U 94074D   18266.97023794 +.00000103 +00000-0 +45007-4 0  9999
2 23345 097.8179 292.3278 0197672 028.5955 040.3520 14.30274848243889
Source of the keplerian elements: AFSPC